THY3PQ EGLL-LTFM

Flight info

Callsign THY3PQ
Flight time 3h 6m
Altitude 41000
Route DET L6 DVR UL9 KONAN DCT KOK UL607 FERDI DCT MATUG DCT AMASI DCT BOMBI DCT TENLO DCT DEXIT DCT BEGLA DCT TEGRI DCT NEKUL DCT LAMIT DCT RASUB DCT BULEN DCT BUVAK DCT RIXEN
Aircraft A359/H-SDE2E3GHIJ3J4J5LM1ORWXY/LB1D1

Departure

Time 2026-05-04 17:27
Airport London Heathrow Airport (EGLL)

Arrival

Time 2026-05-04 20:34
Airport İstanbul Airport (LTFM)
Time Latitude Longitude Altitude Speed Heading
2026-05-04 17:26 51.36379 -0.41710 4262 ft 262 kts 150°
2026-05-04 17:27 51.33171 -0.38810 5625 ft 268 kts 146°
2026-05-04 17:27 51.31229 -0.33851 5995 ft 271 kts 93°
2026-05-04 17:28 51.31698 -0.27933 6164 ft 273 kts 93°
2026-05-04 17:29 51.31049 -0.18727 8066 ft 278 kts 98°
2026-05-04 17:29 51.30164 -0.09343 10072 ft 285 kts 99°
2026-05-04 17:30 51.29245 0.00673 10963 ft 328 kts 99°
2026-05-04 17:31 51.28570 0.08171 11489 ft 353 kts 98°
2026-05-04 17:31 51.27611 0.18752 12668 ft 367 kts 98°
2026-05-04 17:32 51.26742 0.28213 13807 ft 374 kts 98°
2026-05-04 17:33 51.25710 0.39305 14978 ft 381 kts 99°
2026-05-04 17:33 51.25316 0.43515 15448 ft 383 kts 99°
2026-05-04 17:34 51.24114 0.56252 16785 ft 390 kts 100°
2026-05-04 17:34 51.23702 0.60574 17248 ft 393 kts 99°
2026-05-04 17:35 51.22402 0.74122 18555 ft 401 kts 100°
2026-05-04 17:35 51.21577 0.82629 19270 ft 406 kts 100°
2026-05-04 17:35 51.21142 0.87091 19650 ft 408 kts 100°
2026-05-04 17:36 51.20703 0.91567 20027 ft 410 kts 100°
2026-05-04 17:36 51.20261 0.96071 20396 ft 412 kts 100°
2026-05-04 17:36 51.19769 1.01049 20742 ft 416 kts 100°
2026-05-04 17:36 51.19339 1.05379 21093 ft 418 kts 101°
2026-05-04 17:37 51.18873 1.10058 21462 ft 420 kts 101°
2026-05-04 17:37 51.18413 1.14663 21807 ft 422 kts 101°
2026-05-04 17:37 51.17947 1.19305 22154 ft 424 kts 101°
2026-05-04 17:37 51.17477 1.23970 22485 ft 427 kts 101°
2026-05-04 17:38 51.16998 1.28699 22837 ft 429 kts 101°
2026-05-04 17:38 51.16519 1.33407 23174 ft 431 kts 101°
2026-05-04 17:38 51.16048 1.38122 23508 ft 433 kts 100°
2026-05-04 17:38 51.15717 1.42913 23780 ft 436 kts 97°
2026-05-04 17:39 51.15325 1.52665 24226 ft 443 kts 95°
2026-05-04 17:39 51.15146 1.57640 24532 ft 444 kts 95°
2026-05-04 17:39 51.14952 1.62546 24832 ft 446 kts 96°
2026-05-04 17:40 51.14735 1.67482 25117 ft 447 kts 96°
2026-05-04 17:40 51.14500 1.72442 25404 ft 449 kts 96°
2026-05-04 17:40 51.14253 1.77405 25701 ft 451 kts 96°
2026-05-04 17:40 51.13999 1.82388 26005 ft 453 kts 96°
2026-05-04 17:41 51.13740 1.87391 26310 ft 455 kts 97°
2026-05-04 17:41 51.13477 1.92431 26667 ft 456 kts 97°
2026-05-04 17:41 51.13214 1.97469 27033 ft 457 kts 97°
2026-05-04 17:41 51.12950 2.02523 27373 ft 459 kts 97°
2026-05-04 17:42 51.12683 2.07608 27719 ft 461 kts 97°
2026-05-04 17:42 51.12411 2.12700 28092 ft 463 kts 97°
2026-05-04 17:42 51.12130 2.17899 28473 ft 465 kts 97°
2026-05-04 17:42 51.11849 2.23039 28845 ft 468 kts 97°
2026-05-04 17:43 51.11566 2.28202 29208 ft 470 kts 97°
2026-05-04 17:43 51.11277 2.33429 29590 ft 472 kts 97°
2026-05-04 17:43 51.10981 2.38746 29973 ft 474 kts 98°
2026-05-04 17:43 51.10688 2.43984 30342 ft 476 kts 98°
2026-05-04 17:44 51.10390 2.49240 30627 ft 478 kts 98°
2026-05-04 17:44 51.10089 2.54533 30904 ft 481 kts 98°
2026-05-04 17:44 51.09783 2.59854 31174 ft 484 kts 98°
2026-05-04 17:44 51.09315 2.65146 31447 ft 484 kts 104°
2026-05-04 17:45 51.08525 2.70320 31724 ft 484 kts 108°
2026-05-04 17:45 51.07643 2.75510 31989 ft 486 kts 109°
2026-05-04 17:45 51.06715 2.80700 32239 ft 488 kts 109°
2026-05-04 17:45 51.05765 2.85884 32508 ft 490 kts 109°
2026-05-04 17:46 51.04796 2.91126 32881 ft 489 kts 109°
2026-05-04 17:46 51.04158 2.94576 33106 ft 489 kts 110°
2026-05-04 17:46 51.03173 2.99901 33443 ft 489 kts 110°
2026-05-04 17:46 51.02216 3.05083 33778 ft 490 kts 110°
2026-05-04 17:47 51.01258 3.10277 34090 ft 490 kts 110°
2026-05-04 17:47 51.00295 3.15487 34389 ft 489 kts 110°
2026-05-04 17:47 50.99329 3.20711 34688 ft 489 kts 110°
2026-05-04 17:47 50.98367 3.25894 34964 ft 489 kts 110°
2026-05-04 17:48 50.97405 3.31067 35242 ft 489 kts 110°
2026-05-04 17:48 50.96437 3.36258 35532 ft 488 kts 110°
2026-05-04 17:48 50.95470 3.41422 35799 ft 488 kts 110°
2026-05-04 17:48 50.94459 3.46805 36057 ft 489 kts 110°
2026-05-04 17:49 50.93487 3.51965 36317 ft 489 kts 110°
2026-05-04 17:49 50.92507 3.57151 36574 ft 490 kts 110°
2026-05-04 17:49 50.91528 3.62323 36832 ft 490 kts 110°
2026-05-04 17:49 50.90562 3.67499 37073 ft 490 kts 109°
2026-05-04 17:50 50.89659 3.72705 37333 ft 491 kts 108°
2026-05-04 17:50 50.88789 3.77942 37561 ft 492 kts 108°
2026-05-04 17:50 50.87923 3.83199 37759 ft 493 kts 107°
2026-05-04 17:50 50.87054 3.88447 37984 ft 493 kts 108°
2026-05-04 17:51 50.86175 3.93696 38222 ft 493 kts 108°
2026-05-04 17:51 50.85288 3.98930 38457 ft 493 kts 108°
2026-05-04 17:51 50.84378 4.04256 38665 ft 493 kts 108°
2026-05-04 17:51 50.83482 4.09463 38837 ft 493 kts 108°
2026-05-04 17:52 50.82575 4.14704 38990 ft 493 kts 108°
2026-05-04 17:52 50.81666 4.19948 39148 ft 494 kts 108°
2026-05-04 17:52 50.80756 4.25179 39296 ft 494 kts 108°
2026-05-04 17:52 50.79843 4.30412 39440 ft 494 kts 108°
2026-05-04 17:53 50.78924 4.35672 39562 ft 495 kts 108°
2026-05-04 17:53 50.78006 4.40907 39692 ft 495 kts 108°
2026-05-04 17:53 50.77083 4.46157 39841 ft 495 kts 108°
2026-05-04 17:53 50.76158 4.51404 39952 ft 495 kts 108°
2026-05-04 17:54 50.75238 4.56606 40082 ft 496 kts 108°
2026-05-04 17:54 50.74301 4.61888 40198 ft 496 kts 108°
2026-05-04 17:54 50.73371 4.67117 40314 ft 496 kts 108°
2026-05-04 17:54 50.72433 4.72377 40389 ft 497 kts 108°
2026-05-04 17:55 50.70550 4.82882 40600 ft 498 kts 108°
2026-05-04 17:55 50.69597 4.88178 40710 ft 498 kts 108°
2026-05-04 17:55 50.68636 4.93503 40831 ft 498 kts 108°
2026-05-04 17:56 50.66738 5.03974 40972 ft 499 kts 108°
2026-05-04 17:56 50.64823 5.14475 40957 ft 498 kts 108°
2026-05-04 17:57 50.62884 5.25053 40969 ft 499 kts 109°
2026-05-04 17:57 50.60958 5.35494 40997 ft 499 kts 109°
2026-05-04 17:58 50.58926 5.46448 40999 ft 499 kts 109°
2026-05-04 17:58 50.56984 5.56855 40998 ft 499 kts 109°
2026-05-04 17:59 50.55008 5.67389 40996 ft 499 kts 109°
2026-05-04 18:00 50.52041 5.83090 40991 ft 499 kts 109°
2026-05-04 18:00 50.50370 5.91877 40992 ft 499 kts 109°
2026-05-04 18:01 50.48341 6.02491 40984 ft 499 kts 109°
2026-05-04 18:01 50.46342 6.12892 40977 ft 499 kts 109°
2026-05-04 18:02 50.43305 6.28582 40979 ft 499 kts 109°
2026-05-04 18:02 50.41282 6.38998 40979 ft 499 kts 109°
2026-05-04 18:03 50.39684 6.49719 40970 ft 501 kts 104°
2026-05-04 18:03 50.38349 6.60376 40981 ft 501 kts 104°
2026-05-04 18:04 50.36920 6.71237 40987 ft 501 kts 104°
2026-05-04 18:05 50.34687 6.87213 40994 ft 500 kts 105°
2026-05-04 18:05 50.33160 6.97924 40994 ft 501 kts 105°
2026-05-04 18:06 50.30841 7.14073 40989 ft 500 kts 105°
2026-05-04 18:06 50.29297 7.24748 40996 ft 500 kts 105°
2026-05-04 18:07 50.27756 7.35333 40995 ft 500 kts 105°
2026-05-04 18:07 50.26201 7.45942 40993 ft 500 kts 105°
2026-05-04 18:08 50.24638 7.56530 40997 ft 500 kts 105°
2026-05-04 18:08 50.23054 7.67240 40997 ft 500 kts 105°
2026-05-04 18:09 50.19880 7.88422 40983 ft 500 kts 106°
2026-05-04 18:10 50.18280 7.98993 40975 ft 501 kts 106°
2026-05-04 18:10 50.16658 8.09645 40965 ft 501 kts 106°
2026-05-04 18:11 50.15037 8.20227 40957 ft 501 kts 106°
2026-05-04 18:11 50.13641 8.29279 40946 ft 501 kts 106°
2026-05-04 18:12 50.11890 8.40568 40952 ft 502 kts 106°
2026-05-04 18:12 50.10246 8.51091 40966 ft 501 kts 106°
2026-05-04 18:13 50.08577 8.61706 40970 ft 501 kts 106°
2026-05-04 18:14 50.06082 8.77426 40965 ft 500 kts 107°
2026-05-04 18:14 50.03941 8.87765 40968 ft 499 kts 111°
2026-05-04 18:15 49.99332 9.08144 40971 ft 498 kts 112°
2026-05-04 18:16 49.96987 9.18400 40972 ft 499 kts 112°
2026-05-04 18:16 49.94662 9.28544 40977 ft 499 kts 112°
2026-05-04 18:17 49.91163 9.43742 40970 ft 499 kts 112°
2026-05-04 18:18 49.87638 9.58945 40965 ft 499 kts 112°
2026-05-04 18:18 49.85260 9.69134 40969 ft 499 kts 112°
2026-05-04 18:19 49.81705 9.84281 40965 ft 499 kts 113°
2026-05-04 18:19 49.79323 9.94373 40966 ft 499 kts 113°
2026-05-04 18:20 49.76934 10.04446 40957 ft 500 kts 113°
2026-05-04 18:20 49.74519 10.14579 40953 ft 501 kts 113°
2026-05-04 18:21 49.72092 10.24722 40960 ft 500 kts 113°
2026-05-04 18:21 49.69669 10.34801 40956 ft 500 kts 113°
2026-05-04 18:22 49.67236 10.44871 40952 ft 500 kts 113°
2026-05-04 18:22 49.65188 10.53308 40955 ft 501 kts 113°
2026-05-04 18:23 49.62732 10.63389 40954 ft 501 kts 113°
2026-05-04 18:23 49.60264 10.73475 40951 ft 501 kts 113°
2026-05-04 18:24 49.57807 10.83469 40934 ft 501 kts 113°
2026-05-04 18:24 49.55329 10.93500 40945 ft 502 kts 113°
2026-05-04 18:25 49.52835 11.03555 40932 ft 501 kts 113°
2026-05-04 18:25 49.50252 11.13526 40936 ft 501 kts 115°
2026-05-04 18:26 49.47519 11.23389 40938 ft 501 kts 116°
2026-05-04 18:26 49.44780 11.33239 40952 ft 501 kts 115°
2026-05-04 18:27 49.42058 11.43103 40949 ft 501 kts 115°
2026-05-04 18:27 49.39334 11.52982 40934 ft 501 kts 115°
2026-05-04 18:28 49.36600 11.62862 40948 ft 500 kts 115°
2026-05-04 18:28 49.33825 11.72846 40948 ft 500 kts 115°
2026-05-04 18:29 49.31084 11.82661 40949 ft 500 kts 115°
2026-05-04 18:29 49.28330 11.92480 40948 ft 500 kts 115°
2026-05-04 18:30 49.24195 12.07151 40932 ft 500 kts 115°
2026-05-04 18:31 49.21415 12.16958 40934 ft 500 kts 115°
2026-05-04 18:31 49.18638 12.26721 40940 ft 500 kts 116°
2026-05-04 18:32 49.15806 12.36635 40934 ft 500 kts 116°
2026-05-04 18:32 49.13052 12.46237 40925 ft 500 kts 116°
2026-05-04 18:33 49.10209 12.56105 40928 ft 500 kts 115°
2026-05-04 18:33 49.07385 12.65873 40928 ft 500 kts 116°
2026-05-04 18:34 49.04565 12.75585 40928 ft 500 kts 116°
2026-05-04 18:34 49.01744 12.85262 40927 ft 500 kts 116°
2026-05-04 18:35 48.98889 12.95019 40930 ft 500 kts 116°
2026-05-04 18:35 48.96054 13.04667 40922 ft 500 kts 116°
2026-05-04 18:36 48.93208 13.14311 40924 ft 499 kts 116°
2026-05-04 18:36 48.90351 13.23959 40926 ft 499 kts 116°
2026-05-04 18:37 48.87492 13.33571 40922 ft 499 kts 116°
2026-05-04 18:37 48.84953 13.42077 40921 ft 500 kts 116°
2026-05-04 18:38 48.82097 13.51612 40921 ft 499 kts 116°
2026-05-04 18:38 48.79190 13.61278 40916 ft 499 kts 116°
2026-05-04 18:39 48.76310 13.70817 40914 ft 500 kts 116°
2026-05-04 18:39 48.73642 13.80519 40919 ft 501 kts 112°
2026-05-04 18:40 48.71146 13.90476 40918 ft 501 kts 114°
2026-05-04 18:40 48.68377 14.00229 40917 ft 500 kts 115°
2026-05-04 18:41 48.65510 14.09832 40901 ft 501 kts 116°
2026-05-04 18:41 48.62625 14.19444 40914 ft 501 kts 115°
2026-05-04 18:42 48.59739 14.29086 40912 ft 501 kts 115°
2026-05-04 18:42 48.56864 14.38684 40909 ft 501 kts 115°
2026-05-04 18:43 48.53983 14.48272 40910 ft 501 kts 115°
2026-05-04 18:43 48.51087 14.57866 40914 ft 502 kts 116°
2026-05-04 18:44 48.48167 14.67503 40902 ft 502 kts 116°
2026-05-04 18:44 48.45258 14.77067 40903 ft 502 kts 116°
2026-05-04 18:45 48.42338 14.86626 40913 ft 502 kts 116°
2026-05-04 18:45 48.39408 14.96183 40914 ft 502 kts 116°
2026-05-04 18:46 48.36472 15.05726 40916 ft 502 kts 116°
2026-05-04 18:46 48.33529 15.15251 40901 ft 502 kts 116°
2026-05-04 18:47 48.30579 15.24763 40913 ft 502 kts 116°
2026-05-04 18:47 48.27624 15.34255 40914 ft 501 kts 116°
2026-05-04 18:48 48.24662 15.43734 40907 ft 501 kts 116°
2026-05-04 18:48 48.21693 15.53202 40911 ft 501 kts 116°
2026-05-04 18:49 48.18715 15.62657 40923 ft 501 kts 116°
2026-05-04 18:49 48.15732 15.72097 40924 ft 500 kts 116°
2026-05-04 18:50 48.12746 15.81511 40925 ft 500 kts 116°
2026-05-04 18:50 48.09769 15.90862 40933 ft 500 kts 116°
2026-05-04 18:51 48.06768 16.00251 40931 ft 500 kts 116°
2026-05-04 18:51 48.03740 16.09691 40932 ft 500 kts 116°
2026-05-04 18:52 48.00723 16.19059 40943 ft 500 kts 116°
2026-05-04 18:52 47.97702 16.28410 40943 ft 500 kts 116°
2026-05-04 18:53 47.94671 16.37751 40946 ft 500 kts 116°
2026-05-04 18:53 47.91635 16.47078 40948 ft 500 kts 116°
2026-05-04 18:54 47.88594 16.56386 40949 ft 500 kts 116°
2026-05-04 18:54 47.85545 16.65685 40948 ft 500 kts 116°
2026-05-04 18:55 47.82486 16.74976 40949 ft 500 kts 116°
2026-05-04 18:55 47.78199 16.87945 40968 ft 500 kts 116°
2026-05-04 18:56 47.74742 16.98356 40965 ft 501 kts 117°
2026-05-04 18:56 47.72156 17.06115 40970 ft 500 kts 116°
2026-05-04 18:57 47.69011 17.15341 40969 ft 499 kts 118°
2026-05-04 18:57 47.65646 17.24274 40976 ft 499 kts 120°
2026-05-04 18:58 47.62154 17.33232 40982 ft 499 kts 120°
2026-05-04 18:58 47.58671 17.42136 40989 ft 498 kts 120°
2026-05-04 18:59 47.55202 17.51014 40994 ft 498 kts 120°
2026-05-04 18:59 47.51748 17.59844 40991 ft 497 kts 120°
2026-05-04 19:00 47.48277 17.68696 40996 ft 498 kts 120°
2026-05-04 19:00 47.44772 17.77601 41001 ft 498 kts 120°
2026-05-04 19:01 47.41288 17.86421 41014 ft 497 kts 120°
2026-05-04 19:01 47.37824 17.95164 41018 ft 496 kts 120°
2026-05-04 19:02 47.34331 18.03951 41019 ft 496 kts 120°
2026-05-04 19:02 47.30811 18.12778 41026 ft 496 kts 120°
2026-05-04 19:03 47.27253 18.21669 41030 ft 496 kts 120°
2026-05-04 19:03 47.23700 18.30520 41030 ft 496 kts 120°
2026-05-04 19:04 47.20180 18.39262 41033 ft 496 kts 120°
2026-05-04 19:04 47.16660 18.47973 41036 ft 496 kts 120°
2026-05-04 19:05 47.13131 18.56680 41031 ft 496 kts 120°
2026-05-04 19:05 47.09588 18.65393 41034 ft 496 kts 120°
2026-05-04 19:06 47.06039 18.74095 41039 ft 496 kts 121°
2026-05-04 19:06 47.02514 18.82707 41046 ft 496 kts 120°
2026-05-04 19:07 46.98924 18.91453 41040 ft 497 kts 121°
2026-05-04 19:07 46.95357 19.00116 41044 ft 497 kts 121°
2026-05-04 19:08 46.91784 19.08763 41043 ft 497 kts 121°
2026-05-04 19:08 46.88203 19.17404 41043 ft 497 kts 121°
2026-05-04 19:09 46.84611 19.26043 41046 ft 497 kts 121°
2026-05-04 19:09 46.81006 19.34688 41049 ft 497 kts 121°
2026-05-04 19:10 46.77404 19.43298 41050 ft 497 kts 121°
2026-05-04 19:10 46.73787 19.51917 41051 ft 497 kts 121°
2026-05-04 19:11 46.70159 19.60535 41057 ft 497 kts 121°
2026-05-04 19:11 46.66564 19.69047 41054 ft 497 kts 121°
2026-05-04 19:12 46.61120 19.81890 41060 ft 497 kts 121°
2026-05-04 19:13 46.57472 19.90462 41060 ft 497 kts 121°
2026-05-04 19:13 46.53823 19.99010 41060 ft 497 kts 121°
2026-05-04 19:14 46.50176 20.07525 41065 ft 497 kts 121°
2026-05-04 19:14 46.46513 20.16055 41065 ft 496 kts 121°
2026-05-04 19:15 46.42839 20.24581 41064 ft 497 kts 121°
2026-05-04 19:15 46.39171 20.33068 41065 ft 497 kts 121°
2026-05-04 19:16 46.35489 20.41561 41064 ft 497 kts 121°
2026-05-04 19:16 46.31813 20.50013 41066 ft 497 kts 121°
2026-05-04 19:17 46.28090 20.58431 41070 ft 497 kts 122°
2026-05-04 19:17 46.24342 20.66835 41070 ft 497 kts 122°
2026-05-04 19:18 46.20591 20.75239 41073 ft 497 kts 122°
2026-05-04 19:18 46.16838 20.83638 41074 ft 497 kts 122°
2026-05-04 19:19 46.13083 20.92022 41073 ft 497 kts 122°
2026-05-04 19:19 46.09904 20.99098 41076 ft 497 kts 122°
2026-05-04 19:20 46.06160 21.07410 41074 ft 497 kts 122°
2026-05-04 19:20 46.02357 21.15826 41064 ft 498 kts 122°
2026-05-04 19:21 45.98509 21.24319 41078 ft 498 kts 122°
2026-05-04 19:21 45.94745 21.32598 41076 ft 498 kts 122°
2026-05-04 19:22 45.90952 21.40918 41069 ft 499 kts 122°
2026-05-04 19:22 45.87143 21.49248 41089 ft 499 kts 122°
2026-05-04 19:23 45.83325 21.57574 41075 ft 499 kts 122°
2026-05-04 19:23 45.79530 21.65825 41077 ft 499 kts 122°
2026-05-04 19:24 45.75702 21.74123 41088 ft 499 kts 122°
2026-05-04 19:24 45.71843 21.82464 41085 ft 498 kts 122°
2026-05-04 19:25 45.67993 21.90760 41088 ft 498 kts 122°
2026-05-04 19:25 45.64106 21.99112 41088 ft 498 kts 122°
2026-05-04 19:26 45.60255 22.07362 41096 ft 499 kts 122°
2026-05-04 19:26 45.56405 22.15587 41099 ft 499 kts 122°
2026-05-04 19:27 45.52534 22.23832 41105 ft 499 kts 122°
2026-05-04 19:27 45.48677 22.32024 41128 ft 499 kts 122°
2026-05-04 19:28 45.44780 22.40276 41117 ft 499 kts 122°
2026-05-04 19:28 45.40905 22.48458 41121 ft 498 kts 122°
2026-05-04 19:29 45.37022 22.56634 41116 ft 498 kts 122°
2026-05-04 19:29 45.33107 22.64854 41119 ft 499 kts 123°
2026-05-04 19:30 45.29209 22.73014 41116 ft 499 kts 123°
2026-05-04 19:30 45.25305 22.81165 41100 ft 499 kts 123°
2026-05-04 19:31 45.21398 22.89296 41109 ft 498 kts 123°
2026-05-04 19:31 45.17490 22.97408 41095 ft 498 kts 123°
2026-05-04 19:32 45.13581 23.05497 41080 ft 498 kts 123°
2026-05-04 19:32 45.09658 23.13593 41081 ft 498 kts 123°
2026-05-04 19:33 45.05738 23.21660 41080 ft 497 kts 123°
2026-05-04 19:33 45.01805 23.29731 41069 ft 498 kts 123°
2026-05-04 19:34 44.97874 23.37777 41071 ft 498 kts 123°
2026-05-04 19:34 44.93939 23.45807 41069 ft 498 kts 123°
2026-05-04 19:35 44.89986 23.53849 41062 ft 497 kts 123°
2026-05-04 19:35 44.86039 23.61860 41063 ft 498 kts 123°
2026-05-04 19:36 44.82078 23.69876 41062 ft 498 kts 123°
2026-05-04 19:36 44.78116 23.77871 41066 ft 498 kts 123°
2026-05-04 19:37 44.74139 23.85872 41068 ft 498 kts 123°
2026-05-04 19:37 44.70189 23.93800 41067 ft 498 kts 123°
2026-05-04 19:38 44.66211 24.01761 41067 ft 497 kts 123°
2026-05-04 19:38 44.62232 24.09703 41074 ft 497 kts 123°
2026-05-04 19:39 44.58241 24.17645 41060 ft 497 kts 124°
2026-05-04 19:39 44.54258 24.25552 41068 ft 497 kts 124°
2026-05-04 19:40 44.50247 24.33491 41070 ft 497 kts 124°
2026-05-04 19:40 44.46243 24.41395 41066 ft 497 kts 124°
2026-05-04 19:41 44.42237 24.49279 41063 ft 497 kts 124°
2026-05-04 19:41 44.38222 24.57163 41058 ft 497 kts 124°
2026-05-04 19:42 44.34202 24.65033 41065 ft 497 kts 124°
2026-05-04 19:42 44.30854 24.71573 41063 ft 497 kts 124°
2026-05-04 19:43 44.26825 24.79422 41062 ft 497 kts 124°
2026-05-04 19:43 44.22788 24.87266 41059 ft 497 kts 124°
2026-05-04 19:44 44.18742 24.95104 41062 ft 497 kts 124°
2026-05-04 19:44 44.14699 25.02919 41063 ft 497 kts 124°
2026-05-04 19:45 44.10593 25.10832 41060 ft 496 kts 124°
2026-05-04 19:45 44.06542 25.18617 41061 ft 496 kts 124°
2026-05-04 19:46 44.02511 25.26345 41062 ft 497 kts 124°
2026-05-04 19:46 43.98434 25.34140 41060 ft 496 kts 124°
2026-05-04 19:47 43.94365 25.41896 41053 ft 496 kts 124°
2026-05-04 19:47 43.90299 25.49626 41053 ft 497 kts 124°
2026-05-04 19:48 43.86188 25.57423 41053 ft 497 kts 124°
2026-05-04 19:48 43.82077 25.65199 41056 ft 497 kts 125°
2026-05-04 19:49 43.77981 25.72927 41057 ft 497 kts 125°
2026-05-04 19:49 43.73881 25.80641 41050 ft 498 kts 125°
2026-05-04 19:50 43.69754 25.88386 41054 ft 498 kts 125°
2026-05-04 19:50 43.65638 25.96090 41053 ft 498 kts 125°
2026-05-04 19:51 43.61519 26.03779 41049 ft 498 kts 125°
2026-05-04 19:51 43.57420 26.11411 41052 ft 498 kts 125°
2026-05-04 19:52 43.53293 26.19076 41043 ft 498 kts 125°
2026-05-04 19:52 43.49151 26.26748 41054 ft 498 kts 125°
2026-05-04 19:53 43.45006 26.34406 41047 ft 498 kts 125°
2026-05-04 19:53 43.40854 26.42056 41047 ft 498 kts 125°
2026-05-04 19:54 43.36702 26.49687 41055 ft 498 kts 125°
2026-05-04 19:54 43.32543 26.57310 41055 ft 499 kts 125°
2026-05-04 19:55 43.28377 26.64928 41053 ft 499 kts 126°
2026-05-04 19:55 43.24200 26.72546 41064 ft 499 kts 126°
2026-05-04 19:56 43.20015 26.80157 41071 ft 499 kts 125°
2026-05-04 19:56 43.15841 26.87729 41056 ft 499 kts 125°
2026-05-04 19:57 43.11650 26.95314 41055 ft 499 kts 126°
2026-05-04 19:57 43.07450 27.02895 41058 ft 499 kts 126°
2026-05-04 19:58 43.03256 27.10446 41052 ft 499 kts 125°
2026-05-04 19:58 42.99048 27.18004 41057 ft 500 kts 126°
2026-05-04 19:59 42.94831 27.25557 41057 ft 500 kts 126°
2026-05-04 19:59 42.90609 27.33102 41061 ft 500 kts 126°
2026-05-04 20:00 42.86383 27.40633 41060 ft 500 kts 126°
2026-05-04 20:00 42.82154 27.48150 41068 ft 500 kts 126°
2026-05-04 20:01 42.77916 27.55664 41073 ft 500 kts 126°
2026-05-04 20:01 42.73680 27.63157 41072 ft 500 kts 126°
2026-05-04 20:02 42.69403 27.70702 41072 ft 500 kts 126°
2026-05-04 20:02 42.65150 27.78186 40917 ft 498 kts 126°
2026-05-04 20:02 42.63061 27.81854 40749 ft 488 kts 126°
2026-05-04 20:03 42.60976 27.85510 39958 ft 492 kts 125°
2026-05-04 20:03 42.58872 27.89201 39059 ft 499 kts 125°
2026-05-04 20:03 42.56728 27.92954 38101 ft 504 kts 125°
2026-05-04 20:03 42.54580 27.96708 37248 ft 504 kts 125°
2026-05-04 20:04 42.52430 28.00460 36487 ft 502 kts 125°
2026-05-04 20:04 42.50292 28.04185 35738 ft 500 kts 125°
2026-05-04 20:04 42.48153 28.07909 35002 ft 498 kts 124°
2026-05-04 20:04 42.46026 28.11606 34288 ft 496 kts 124°
2026-05-04 20:05 42.43906 28.15288 33460 ft 494 kts 124°
2026-05-04 20:05 42.41789 28.18962 32427 ft 497 kts 124°
2026-05-04 20:05 42.39657 28.22660 31344 ft 501 kts 124°
2026-05-04 20:05 42.37503 28.26390 30347 ft 504 kts 124°
2026-05-04 20:06 42.35357 28.30098 29422 ft 504 kts 124°
2026-05-04 20:06 42.33173 28.33864 28655 ft 499 kts 123°
2026-05-04 20:06 42.31022 28.37568 27944 ft 495 kts 123°
2026-05-04 20:06 42.29580 28.40051 27451 ft 491 kts 123°
2026-05-04 20:07 42.27479 28.43663 26774 ft 487 kts 123°
2026-05-04 20:07 42.25360 28.47303 26071 ft 483 kts 123°
2026-05-04 20:07 42.23271 28.50890 25381 ft 479 kts 123°
2026-05-04 20:07 42.21186 28.54463 24796 ft 474 kts 123°
2026-05-04 20:08 42.19155 28.57934 24652 ft 457 kts 123°
2026-05-04 20:08 42.17214 28.61245 24522 ft 442 kts 122°
2026-05-04 20:08 42.15319 28.64478 24370 ft 428 kts 122°
2026-05-04 20:08 42.13486 28.67605 24175 ft 415 kts 122°
2026-05-04 20:09 42.11718 28.70620 23875 ft 407 kts 122°
2026-05-04 20:09 42.09855 28.73518 23383 ft 410 kts 130°
2026-05-04 20:09 42.07462 28.75744 22920 ft 418 kts 150°
2026-05-04 20:09 42.04650 28.76777 22616 ft 427 kts 169°
2026-05-04 20:10 42.01665 28.77007 22260 ft 431 kts 175°
2026-05-04 20:10 41.98663 28.77087 21893 ft 430 kts 176°
2026-05-04 20:10 41.95676 28.77164 21531 ft 428 kts 175°
2026-05-04 20:10 41.92708 28.77255 21178 ft 426 kts 175°
2026-05-04 20:11 41.89760 28.77356 20822 ft 423 kts 175°
2026-05-04 20:11 41.86838 28.77463 20556 ft 416 kts 175°
2026-05-04 20:11 41.83985 28.77571 20344 ft 404 kts 175°
2026-05-04 20:11 41.81205 28.77673 20153 ft 394 kts 175°
2026-05-04 20:12 41.78481 28.77617 19835 ft 390 kts 185°
2026-05-04 20:12 41.75938 28.76508 19420 ft 389 kts 210°
2026-05-04 20:12 41.73879 28.74206 18976 ft 381 kts 234°
2026-05-04 20:12 41.72348 28.71332 18581 ft 376 kts 240°
2026-05-04 20:13 41.70904 28.68434 18210 ft 373 kts 239°
2026-05-04 20:13 41.69446 28.65589 17847 ft 368 kts 239°
2026-05-04 20:13 41.67982 28.62807 17540 ft 364 kts 238°
2026-05-04 20:13 41.66957 28.60888 17331 ft 364 kts 238°
2026-05-04 20:14 41.64937 28.57144 16923 ft 360 kts 237°
2026-05-04 20:14 41.63464 28.54436 16623 ft 358 kts 237°
2026-05-04 20:14 41.62000 28.51754 16316 ft 356 kts 237°
2026-05-04 20:14 41.60523 28.49054 16024 ft 354 kts 237°
2026-05-04 20:15 41.59054 28.46375 15722 ft 352 kts 237°
2026-05-04 20:15 41.57608 28.43743 15418 ft 350 kts 237°
2026-05-04 20:15 41.56175 28.41136 15142 ft 348 kts 237°
2026-05-04 20:15 41.54712 28.38566 14736 ft 348 kts 231°
2026-05-04 20:16 41.52780 28.36696 14140 ft 349 kts 204°
2026-05-04 20:16 41.50451 28.36112 13548 ft 338 kts 176°
2026-05-04 20:16 41.48104 28.36410 13157 ft 339 kts 171°
2026-05-04 20:16 41.45771 28.36739 12741 ft 336 kts 172°
2026-05-04 20:17 41.43422 28.36979 12356 ft 333 kts 174°
2026-05-04 20:17 41.41114 28.37147 11991 ft 331 kts 175°
2026-05-04 20:17 41.38815 28.37272 11619 ft 330 kts 175°
2026-05-04 20:17 41.36554 28.37373 11259 ft 329 kts 176°
2026-05-04 20:18 41.34272 28.37462 10892 ft 327 kts 176°
2026-05-04 20:18 41.32005 28.37546 10515 ft 325 kts 176°
2026-05-04 20:18 41.29747 28.37624 10159 ft 324 kts 176°
2026-05-04 20:18 41.27503 28.37698 9783 ft 322 kts 176°
2026-05-04 20:19 41.25271 28.37772 9409 ft 320 kts 176°
2026-05-04 20:19 41.23046 28.37845 9047 ft 319 kts 176°
2026-05-04 20:19 41.20838 28.37917 8691 ft 317 kts 177°
2026-05-04 20:19 41.18627 28.37988 8330 ft 316 kts 177°
2026-05-04 20:20 41.16436 28.38060 7958 ft 314 kts 177°
2026-05-04 20:20 41.14250 28.38131 7589 ft 313 kts 177°
2026-05-04 20:20 41.12110 28.38198 7396 ft 302 kts 177°
2026-05-04 20:20 41.10043 28.38263 7225 ft 292 kts 177°
2026-05-04 20:21 41.08040 28.38327 6898 ft 283 kts 177°
2026-05-04 20:21 41.06086 28.38390 6457 ft 276 kts 177°
2026-05-04 20:21 41.02272 28.38514 5834 ft 272 kts 177°
2026-05-04 20:22 41.01035 28.38562 5635 ft 266 kts 176°
2026-05-04 20:22 40.99246 28.39099 5371 ft 263 kts 148°
2026-05-04 20:22 40.97959 28.40677 5031 ft 247 kts 112°
2026-05-04 20:22 40.97516 28.42775 4669 ft 231 kts 86°
2026-05-04 20:23 40.97484 28.44869 4416 ft 226 kts 82°
2026-05-04 20:23 40.97508 28.46949 4218 ft 226 kts 82°
2026-05-04 20:23 40.97499 28.49059 3974 ft 228 kts 87°
2026-05-04 20:23 40.97262 28.51147 3969 ft 231 kts 94°
2026-05-04 20:24 40.96946 28.53189 4032 ft 231 kts 95°
2026-05-04 20:24 40.96609 28.55277 4055 ft 232 kts 95°
2026-05-04 20:24 40.96269 28.57369 3932 ft 224 kts 95°
2026-05-04 20:24 40.95991 28.59355 3817 ft 217 kts 89°
2026-05-04 20:25 40.95940 28.61326 3801 ft 215 kts 83°
2026-05-04 20:25 40.95963 28.63307 3821 ft 214 kts 82°
2026-05-04 20:25 40.95995 28.65298 3758 ft 213 kts 82°
2026-05-04 20:25 40.96185 28.67216 3632 ft 207 kts 66°
2026-05-04 20:26 40.96921 28.68761 3514 ft 201 kts 39°
2026-05-04 20:26 40.98072 28.69801 3394 ft 199 kts 27°
2026-05-04 20:26 40.99332 28.70556 3279 ft 196 kts 19°
2026-05-04 20:26 41.00627 28.71026 3163 ft 190 kts 10°
2026-05-04 20:27 41.01954 28.71174 3037 ft 193 kts
2026-05-04 20:27 41.03303 28.71168 3017 ft 194 kts 360°
2026-05-04 20:27 41.04646 28.71134 3015 ft 193 kts 359°
2026-05-04 20:27 41.05961 28.71107 3013 ft 185 kts 360°
2026-05-04 20:28 41.07221 28.71093 3000 ft 164 kts
2026-05-04 20:28 41.08289 28.71087 2991 ft 144 kts
2026-05-04 20:28 41.09263 28.71078 3003 ft 135 kts 360°
2026-05-04 20:28 41.10174 28.71067 3005 ft 128 kts 360°
2026-05-04 20:29 41.11064 28.71052 3009 ft 127 kts 360°
2026-05-04 20:29 41.11941 28.71034 2989 ft 127 kts 359°
2026-05-04 20:29 41.12832 28.71015 2989 ft 127 kts 359°
2026-05-04 20:29 41.13724 28.70994 2888 ft 128 kts 359°
2026-05-04 20:30 41.14599 28.70975 2720 ft 125 kts 360°
2026-05-04 20:30 41.15468 28.70959 2542 ft 126 kts 360°
2026-05-04 20:30 41.16332 28.70943 2375 ft 126 kts 359°
2026-05-04 20:30 41.17206 28.70926 2193 ft 127 kts 359°
2026-05-04 20:31 41.18090 28.70908 2029 ft 127 kts 359°
2026-05-04 20:31 41.18990 28.70890 1857 ft 127 kts 359°
2026-05-04 20:31 41.19868 28.70872 1678 ft 128 kts 358°
2026-05-04 20:31 41.20785 28.70855 1491 ft 129 kts 358°
2026-05-04 20:32 41.21680 28.70837 1316 ft 129 kts 358°
2026-05-04 20:32 41.22580 28.70819 1145 ft 130 kts 358°
2026-05-04 20:32 41.23486 28.70802 961 ft 131 kts 358°
2026-05-04 20:32 41.24397 28.70783 802 ft 130 kts 356°
2026-05-04 20:33 41.25315 28.70773 634 ft 132 kts 356°
2026-05-04 20:33 41.26232 28.70750 429 ft 131 kts 356°
2026-05-04 20:33 41.27132 28.70729 328 ft 127 kts 356°
2026-05-04 20:33 41.27875 28.70711 305 ft 82 kts
2026-05-04 20:34 41.28202 28.70718 294 ft 35 kts 12°
2026-05-04 20:34 41.28362 28.70801 286 ft 12 kts 28°
2026-05-04 20:34 41.28450 28.70866 282 ft 17 kts 31°
2026-05-04 20:34 41.28509 28.71000 278 ft 16 kts 88°
2026-05-04 20:35 41.28507 28.71137 282 ft 12 kts 108°
2026-05-04 20:35 41.28436 28.71177 285 ft 12 kts 175°
2026-05-04 20:35 41.28350 28.71180 293 ft 13 kts 179°
2026-05-04 20:35 41.28279 28.71181 293 ft 17 kts 179°
2026-05-04 20:36 41.28104 28.71185 298 ft 18 kts 179°
2026-05-04 20:36 41.27977 28.71187 301 ft 19 kts 179°
2026-05-04 20:36 41.27847 28.71190 308 ft 19 kts 179°
2026-05-04 20:36 41.27712 28.71192 311 ft 20 kts 179°
2026-05-04 20:37 41.27571 28.71196 313 ft 20 kts 179°
2026-05-04 20:37 41.27427 28.71198 314 ft 21 kts 179°
2026-05-04 20:37 41.27278 28.71201 320 ft 22 kts 179°
2026-05-04 20:37 41.27123 28.71204 321 ft 23 kts 179°
2026-05-04 20:38 41.26963 28.71207 324 ft 23 kts 179°
2026-05-04 20:38 41.26799 28.71211 328 ft 18 kts 179°
2026-05-04 20:38 41.26716 28.71230 331 ft 9 kts 134°
2026-05-04 20:38 41.26700 28.71306 334 ft 9 kts 92°
2026-05-04 20:39 41.26702 28.71445 330 ft 20 kts 89°
2026-05-04 20:39 41.26703 28.71579 327 ft 24 kts 89°
2026-05-04 20:39 41.26705 28.71827 322 ft 29 kts 89°
2026-05-04 20:39 41.26708 28.72040 316 ft 18 kts 89°
2026-05-04 20:40 41.26693 28.72156 315 ft 12 kts 140°
2026-05-04 20:40 41.26604 28.72172 314 ft 15 kts 178°
2026-05-04 20:40 41.26494 28.72175 316 ft 17 kts 179°
2026-05-04 20:40 41.26364 28.72177 316 ft 20 kts 179°
2026-05-04 20:41 41.26250 28.72180 317 ft 11 kts 175°
2026-05-04 20:41 41.26210 28.72258 315 ft 12 kts 95°
2026-05-04 20:41 41.26210 28.72362 316 ft 5 kts 89°
2026-05-04 20:41 41.26210 28.72379 318 ft 0 kts 89°
2026-05-04 20:42 41.26211 28.72394 319 ft 6 kts 89°
2026-05-04 20:42 41.26211 28.72491 320 ft 15 kts 89°
2026-05-04 20:42 41.26213 28.72660 319 ft 21 kts 89°
2026-05-04 20:42 41.26215 28.72841 319 ft 17 kts 89°
2026-05-04 20:43 41.26216 28.72902 317 ft 0 kts 89°
2026-05-04 20:46 41.26216 28.72917 319 ft 6 kts 89°
2026-05-04 20:46 41.26217 28.73022 317 ft 16 kts 89°
2026-05-04 20:47 41.26219 28.73181 316 ft 19 kts 89°
2026-05-04 20:47 41.26220 28.73340 317 ft 15 kts 89°
2026-05-04 20:47 41.26220 28.73476 317 ft 13 kts 92°
2026-05-04 20:47 41.26230 28.73578 318 ft 10 kts 71°
2026-05-04 20:48 41.26243 28.73629 318 ft 0 kts 71°